Schneifelwetter: Wetterstation Hallschlag, 537 m . NN
Wetterdaten: Dienstag, 09.02.2010
Datum Zeit Temp. A. Feuchte A. Luftdruck Regen Wind Richtung Richtung Sonnenschein Helligkeit T Regen Taupunkt Windchill
09.02.2010 00:10 -6,7 C 96 % 1002 hPa 0,0 l/m 18,5 km/h (3 Bft) O-NO45 70 0 min 0 lux 0,00 min -7,2 C -17,4 C
09.02.2010 00:25 -6,8 C 96 % 1001 hPa 0,0 l/m 22,5 km/h (4 Bft) O-NO22.5 60 0 min 0 lux 0,00 min -7,3 C -19,7 C
09.02.2010 00:40 -6,8 C 96 % 1002 hPa 0,0 l/m 17,5 km/h (3 Bft) O45 85 0 min 0 lux 0,00 min -7,3 C -16,9 C
09.02.2010 00:55 -6,9 C 96 % 1002 hPa 0,0 l/m 15,2 km/h (3 Bft) O-NO45 65 0 min 0 lux 0,00 min -7,4 C -15,5 C
09.02.2010 01:09 -7,0 C 97 % 1002 hPa 0,0 l/m 16,3 km/h (3 Bft) O-NO22.5 60 0 min 0 lux 0,00 min -7,4 C -16,4 C
09.02.2010 01:24 -7,1 C 96 % 1002 hPa 0,0 l/m 17,2 km/h (3 Bft) O-NO22.5 70 0 min 0 lux 0,00 min -7,6 C -17,1 C
09.02.2010 01:39 -7,1 C 96 % 1002 hPa 0,0 l/m 19,1 km/h (3 Bft) O-NO45 65 0 min 0 lux 0,00 min -7,6 C -18,3 C
09.02.2010 01:54 -7,1 C 96 % 1002 hPa 0,0 l/m 15,8 km/h (3 Bft) O45 90 0 min 0 lux 0,00 min -7,6 C -16,2 C
09.02.2010 02:09 -7,2 C 96 % 1002 hPa 0,0 l/m 19,5 km/h (3 Bft) O-NO22.5 60 0 min 0 lux 0,00 min -7,7 C -18,6 C
09.02.2010 02:24 -7,2 C 96 % 1002 hPa 0,0 l/m 16,0 km/h (3 Bft) O-NO22.5 60 0 min 0 lux 0,00 min -7,7 C -16,4 C
09.02.2010 02:39 -7,2 C 96 % 1002 hPa 0,0 l/m 17,5 km/h (3 Bft) O-NO22.5 60 0 min 0 lux 0,00 min -7,7 C -17,4 C
09.02.2010 02:54 -7,2 C 96 % 1002 hPa 0,0 l/m 18,1 km/h (3 Bft) O-NO22.5 60 0 min 0 lux 0,00 min -7,7 C -17,8 C
09.02.2010 03:09 -7,2 C 96 % 1001 hPa 0,0 l/m 17,0 km/h (3 Bft) NO22.5 55 0 min 0 lux 0,00 min -7,7 C -17,1 C
09.02.2010 03:24 -7,3 C 96 % 1001 hPa 0,0 l/m 15,6 km/h (3 Bft) O-NO22.5 65 0 min 0 lux 0,00 min -7,8 C -16,3 C
09.02.2010 03:39 -7,3 C 96 % 1001 hPa 0,0 l/m 17,2 km/h (3 Bft) O-NO22.5 65 0 min 0 lux 0,00 min -7,8 C -17,4 C
09.02.2010 03:54 -7,3 C 96 % 1001 hPa 0,0 l/m 14,0 km/h (3 Bft) NO22.5 55 0 min 0 lux 0,00 min -7,8 C -15,1 C
09.02.2010 04:09 -7,3 C 96 % 1001 hPa 0,0 l/m 14,7 km/h (3 Bft) O-NO22.5 60 0 min 0 lux 0,00 min -7,8 C -15,6 C
09.02.2010 04:24 -7,3 C 96 % 1001 hPa 0,0 l/m 15,1 km/h (3 Bft) O-NO22.5 60 0 min 0 lux 0,00 min -7,8 C -15,9 C
09.02.2010 04:39 -7,4 C 96 % 1001 hPa 0,0 l/m 16,5 km/h (3 Bft) O-NO22.5 65 0 min 0 lux 0,00 min -7,9 C -17,0 C
09.02.2010 04:54 -7,4 C 96 % 1001 hPa 0,0 l/m 14,2 km/h (3 Bft) O-NO22.5 60 0 min 0 lux 0,00 min -7,9 C -15,3 C
09.02.2010 05:09 -7,5 C 97 % 1001 hPa 0,0 l/m 18,0 km/h (3 Bft) O-NO45 70 0 min 0 lux 0,00 min -7,9 C -18,1 C
09.02.2010 05:24 -7,5 C 97 % 1001 hPa 0,0 l/m 15,9 km/h (3 Bft) O-NO67.5 60 0 min 0 lux 0,00 min -7,9 C -16,7 C
09.02.2010 05:39 -7,5 C 97 % 1001 hPa 0,0 l/m 14,1 km/h (3 Bft) NO22.5 50 0 min 0 lux 0,00 min -7,9 C -15,4 C
09.02.2010 05:54 -7,5 C 97 % 1001 hPa 0,0 l/m 16,5 km/h (3 Bft) O-NO22.5 60 0 min 0 lux 0,00 min -7,9 C -17,1 C
09.02.2010 06:09 -7,6 C 98 % 1001 hPa 0,0 l/m 16,3 km/h (3 Bft) O-NO22.5 60 0 min 0 lux 0,00 min -7,9 C -17,1 C
09.02.2010 06:24 -7,6 C 98 % 1001 hPa 0,0 l/m 15,7 km/h (3 Bft) O-NO45 60 0 min 0 lux 0,00 min -7,9 C -16,7 C
09.02.2010 06:39 -7,5 C 98 % 1001 hPa 0,0 l/m 13,6 km/h (3 Bft) NO22.5 55 0 min 0 lux 0,00 min -7,8 C -15,0 C
09.02.2010 06:54 -7,6 C 98 % 1001 hPa 0,0 l/m 13,9 km/h (3 Bft) NO22.5 35 0 min 0 lux 0,00 min -7,9 C -15,3 C
09.02.2010 07:09 -7,7 C 98 % 1001 hPa 0,0 l/m 13,6 km/h (3 Bft) NO22.5 50 0 min 0 lux 0,00 min -8,0 C -15,2 C
09.02.2010 07:24 -7,6 C 98 % 1001 hPa 0,0 l/m 14,1 km/h (3 Bft) O-NO45 60 0 min 0 lux 0,00 min -7,9 C -15,5 C
09.02.2010 07:39 -7,7 C 98 % 1001 hPa 0,0 l/m 13,6 km/h (3 Bft) N-NO22.5 30 0 min 70 lux 0,00 min -8,0 C -15,2 C
09.02.2010 07:54 -7,7 C 98 % 1001 hPa 0,0 l/m 18,3 km/h (3 Bft) N-NO22.5 30 0 min 316 lux 0,00 min -8,0 C -18,6 C
09.02.2010 08:09 -7,8 C 98 % 1001 hPa 0,0 l/m 14,5 km/h (3 Bft) O-NO22.5 60 0 min 715 lux 0,00 min -8,1 C -16,1 C
09.02.2010 08:24 -7,8 C 98 % 1001 hPa 0,0 l/m 15,3 km/h (3 Bft) N-NO22.5 30 0 min 1,37 klux 0,00 min -8,1 C -16,7 C
09.02.2010 08:39 -7,8 C 98 % 1001 hPa 0,0 l/m 20,5 km/h (4 Bft) N-NO22.5 25 0 min 1,89 klux 0,00 min -8,1 C -20,0 C
09.02.2010 08:54 -7,7 C 98 % 1002 hPa 0,0 l/m 18,3 km/h (3 Bft) N-NO22.5 25 0 min 3,60 klux 0,00 min -8,0 C -18,6 C
09.02.2010 09:09 -7,7 C 98 % 1001 hPa 0,0 l/m 19,5 km/h (3 Bft) N-NO22.5 30 0 min 4,90 klux 0,00 min -8,0 C -19,3 C
09.02.2010 09:24 -7,6 C 98 % 1001 hPa 0,0 l/m 16,8 km/h (3 Bft) N-NO22.5 25 0 min 6,00 klux 0,00 min -7,9 C -17,5 C
09.02.2010 09:39 -7,4 C 98 % 1002 hPa 0,0 l/m 14,7 km/h (3 Bft) O-NO22.5 60 0 min 7,17 klux 0,00 min -7,7 C -15,7 C
09.02.2010 09:54 -7,3 C 98 % 1002 hPa 0,0 l/m 15,2 km/h (3 Bft) O-NO22.5 65 0 min 7,81 klux 0,00 min -7,6 C -16,0 C
09.02.2010 10:09 -7,4 C 97 % 1002 hPa 0,0 l/m 16,3 km/h (3 Bft) N-NO22.5 30 0 min 8,64 klux 0,00 min -7,8 C -16,9 C
09.02.2010 10:24 -7,2 C 97 % 1002 hPa 0,0 l/m 13,2 km/h (3 Bft) NO22.5 45 0 min 9,8 klux 0,00 min -7,6 C -14,3 C
09.02.2010 10:39 -7,1 C 96 % 1002 hPa 0,0 l/m 15,6 km/h (3 Bft) NO22.5 40 0 min 12,0 klux 0,00 min -7,6 C -16,0 C
09.02.2010 10:54 -7,1 C 96 % 1002 hPa 0,0 l/m 13,3 km/h (3 Bft) N-NO22.5 20 0 min 14,1 klux 0,00 min -7,6 C -14,3 C
09.02.2010 11:09 -6,9 C 96 % 1002 hPa 0,0 l/m 16,0 km/h (3 Bft) N-NO22.5 15 0 min 15,1 klux 0,00 min -7,4 C -16,1 C
09.02.2010 11:24 -6,9 C 96 % 1002 hPa 0,0 l/m 15,9 km/h (3 Bft) NO22.5 45 0 min 15,1 klux 0,00 min -7,4 C -16,0 C
09.02.2010 11:39 -6,7 C 95 % 1002 hPa 0,0 l/m 12,8 km/h (3 Bft) NO22.5 50 0 min 15,9 klux 0,00 min -7,4 C -13,4 C
09.02.2010 11:54 -6,7 C 95 % 1002 hPa 0,0 l/m 13,0 km/h (3 Bft) NO22.5 45 0 min 15,9 klux 0,00 min -7,4 C -13,6 C
09.02.2010 12:16 -6,7 C 94 % 1002 hPa 0,0 l/m 15,5 km/h (3 Bft) NO22.5 35 0 min 16,4 klux 0,00 min -7,5 C -15,5 C
09.02.2010 12:30 -6,8 C 94 % 1002 hPa 0,0 l/m 15,2 km/h (3 Bft) N-NO22.5 20 0 min 17,1 klux 0,00 min -7,6 C -15,4 C
09.02.2010 12:45 -6,9 C 94 % 1002 hPa 0,0 l/m 14,7 km/h (3 Bft) N22.5 5 0 min 17,5 klux 0,00 min -7,7 C -15,1 C
09.02.2010 13:00 -6,8 C 94 % 1002 hPa 0,0 l/m 13,2 km/h (3 Bft) N22.5 5 0 min 17,5 klux 0,00 min -7,6 C -13,8 C
09.02.2010 13:15 -6,8 C 93 % 1002 hPa 0,0 l/m 16,7 km/h (3 Bft) N-NO67.5 20 0 min 17,4 klux 0,00 min -7,7 C -16,4 C
09.02.2010 13:30 -6,8 C 94 % 1001 hPa 0,0 l/m 14,6 km/h (3 Bft) NO45 40 0 min 15,7 klux 0,00 min -7,6 C -14,9 C
09.02.2010 13:45 -6,8 C 94 % 1001 hPa 0,0 l/m 14,5 km/h (3 Bft) N-NO22.5 25 0 min 15,3 klux 0,00 min -7,6 C -14,9 C
09.02.2010 14:01 -7,0 C 93 % 1001 hPa 0,0 l/m 15,8 km/h (3 Bft) N-NO22.5 30 0 min 14,6 klux 0,00 min -7,9 C -16,0 C
09.02.2010 14:15 -7,2 C 94 % 1001 hPa 0,0 l/m 16,6 km/h (3 Bft) N-NO22.5 25 0 min 13,3 klux 0,00 min -8,0 C -16,8 C
09.02.2010 14:30 -7,4 C 94 % 1001 hPa 0,0 l/m 19,0 km/h (3 Bft) N-NO22.5 25 0 min 13,0 klux 0,00 min -8,2 C -18,6 C
09.02.2010 14:45 -7,5 C 94 % 1001 hPa 0,0 l/m 18,5 km/h (3 Bft) N-NO22.5 30 0 min 11,7 klux 0,00 min -8,3 C -18,4 C
09.02.2010 15:00 -7,5 C 95 % 1001 hPa 0,0 l/m 20,2 km/h (4 Bft) NO22.5 40 0 min 10,0 klux 0,00 min -8,2 C -19,4 C
09.02.2010 15:15 -7,5 C 95 % 1001 hPa 0,0 l/m 16,0 km/h (3 Bft) NO22.5 35 0 min 9,0 klux 0,00 min -8,2 C -16,8 C
09.02.2010 15:30 -7,4 C 95 % 1001 hPa 0,0 l/m 17,4 km/h (3 Bft) NO22.5 35 0 min 8,73 klux 0,00 min -8,1 C -17,6 C
09.02.2010 15:45 -7,5 C 95 % 1001 hPa 0,0 l/m 15,4 km/h (3 Bft) N-NO22.5 25 0 min 7,70 klux 0,00 min -8,2 C -16,4 C
09.02.2010 16:00 -7,4 C 95 % 1002 hPa 0,0 l/m 13,8 km/h (3 Bft) N-NO22.5 15 0 min 6,22 klux 0,00 min -8,1 C -15,0 C
09.02.2010 16:15 -7,5 C 95 % 1002 hPa 0,0 l/m 23,2 km/h (4 Bft) N-NO22.5 15 0 min 5,12 klux 0,00 min -8,2 C -21,0 C
09.02.2010 16:30 -7,3 C 93 % 1001 hPa 0,0 l/m 19,6 km/h (3 Bft) N22.5 10 0 min 5,79 klux 0,00 min -8,2 C -18,8 C
09.02.2010 16:45 -7,4 C 93 % 1002 hPa 0,0 l/m 19,3 km/h (3 Bft) N22.5 10 0 min 4,49 klux 0,00 min -8,3 C -18,8 C
09.02.2010 17:00 -7,5 C 93 % 1002 hPa 0,0 l/m 17,2 km/h (3 Bft) N-NO22.5 15 0 min 2,67 klux 0,00 min -8,4 C -17,6 C
09.02.2010 17:16 -7,5 C 93 % 1002 hPa 0,0 l/m 18,1 km/h (3 Bft) N-NO22.5 25 0 min 1,75 klux 0,00 min -8,4 C -18,2 C
09.02.2010 17:30 -7,7 C 92 % 1002 hPa 0,0 l/m 18,8 km/h (3 Bft) N22.5 10 0 min 1,27 klux 0,00 min -8,8 C -18,9 C
09.02.2010 17:45 -7,8 C 92 % 1002 hPa 0,0 l/m 17,3 km/h (3 Bft) N22.5 10 0 min 480 lux 0,00 min -8,9 C -18,0 C
09.02.2010 18:00 -7,9 C 92 % 1002 hPa 0,0 l/m 19,3 km/h (3 Bft) N22.5 10 0 min 137 lux 0,00 min -9,0 C -19,4 C
09.02.2010 18:15 -8,1 C 91 % 1002 hPa 0,0 l/m 25,4 km/h (4 Bft) N-NO22.5 20 0 min 38 lux 0,00 min -9,3 C -22,9 C
09.02.2010 18:30 -8,4 C 91 % 1002 hPa 0,0 l/m 26,0 km/h (4 Bft) N-NO45 15 0 min 6 lux 0,00 min -9,6 C -23,6 C
09.02.2010 18:45 -8,6 C 92 % 1002 hPa 0,0 l/m 26,5 km/h (4 Bft) N-NO22.5 25 0 min 0 lux 0,00 min -9,7 C -24,1 C
09.02.2010 19:01 -8,7 C 92 % 1002 hPa 0,0 l/m 30,7 km/h (5 Bft) N-NO22.5 25 0 min 0 lux 0,00 min -9,8 C -25,9 C
09.02.2010 19:15 -8,7 C 93 % 1002 hPa 0,0 l/m 20,3 km/h (4 Bft) N-NO45 15 0 min 0 lux 0,00 min -9,6 C -21,0 C
09.02.2010 19:30 -8,8 C 92 % 1003 hPa 0,0 l/m 21,8 km/h (4 Bft) N-NO45 25 0 min 0 lux 0,00 min -9,9 C -22,0 C
09.02.2010 19:45 -8,9 C 92 % 1003 hPa 0,0 l/m 19,3 km/h (3 Bft) N-NO22.5 25 0 min 0 lux 0,00 min -10,0 C -20,7 C
09.02.2010 20:00 -9,0 C 92 % 1003 hPa 0,0 l/m 20,8 km/h (4 Bft) N-NO22.5 25 0 min 0 lux 0,00 min -10,1 C -21,7 C
09.02.2010 20:15 -9,1 C 92 % 1003 hPa 0,0 l/m 16,6 km/h (3 Bft) N22.5 355 0 min 0 lux 0,00 min -10,2 C -19,2 C
09.02.2010 20:30 -9,2 C 91 % 1003 hPa 0,0 l/m 15,4 km/h (3 Bft) N-NW67.5 335 0 min 0 lux 0,00 min -10,4 C -18,4 C
09.02.2010 20:45 -9,3 C 91 % 1003 hPa 0,0 l/m 15,6 km/h (3 Bft) N-NW45 345 0 min 0 lux 0,00 min -10,5 C -18,7 C
09.02.2010 21:00 -9,3 C 90 % 1003 hPa 0,0 l/m 26,5 km/h (4 Bft) N-NW67.5 340 0 min 0 lux 0,00 min -10,6 C -25,0 C
09.02.2010 21:15 -9,4 C 90 % 1003 hPa 0,0 l/m 15,5 km/h (3 Bft) N22.5 355 0 min 0 lux 0,00 min -10,7 C -18,8 C
09.02.2010 21:30 -9,3 C 90 % 1003 hPa 0,0 l/m 15,1 km/h (3 Bft) N22.5 5 0 min 0 lux 0,00 min -10,6 C -18,3 C
09.02.2010 21:45 -9,3 C 91 % 1003 hPa 0,0 l/m 20,7 km/h (4 Bft) N67.5 10 0 min 0 lux 0,00 min -10,5 C -22,1 C
09.02.2010 22:00 -9,4 C 90 % 1003 hPa 0,0 l/m 20,7 km/h (4 Bft) N22.5 10 0 min 0 lux 0,00 min -10,7 C -22,2 C
09.02.2010 22:16 -9,4 C 90 % 1003 hPa 0,0 l/m 19,2 km/h (3 Bft) N22.5 5 0 min 0 lux 0,00 min -10,7 C -21,3 C
09.02.2010 22:30 -9,5 C 90 % 1004 hPa 0,0 l/m 13,2 km/h (3 Bft) N22.5 355 0 min 0 lux 0,00 min -10,8 C -17,0 C
09.02.2010 22:45 -9,7 C 91 % 1004 hPa 0,0 l/m 11,3 km/h (2 Bft) N-NW45 345 0 min 0 lux 0,00 min -10,9 C -15,5 C
09.02.2010 23:00 -9,7 C 91 % 1004 hPa 0,0 l/m 13,8 km/h (3 Bft) N-NO67.5 15 0 min 0 lux 0,00 min -10,9 C -17,8 C
09.02.2010 23:15 -9,5 C 92 % 1003 hPa 0,0 l/m 16,7 km/h (3 Bft) N-NW67.5 340 0 min 0 lux 0,00 min -10,6 C -19,8 C
09.02.2010 23:30 -9,5 C 92 % 1004 hPa 0,0 l/m 24,0 km/h (4 Bft) N22.5 5 0 min 0 lux 0,00 min -10,6 C -24,1 C
09.02.2010 23:45 -9,5 C 93 % 1004 hPa 0,0 l/m 19,4 km/h (3 Bft) N-NW67.5 340 0 min 0 lux 0,00 min -10,4 C -21,5 C
_ Min-Zeit 22:45 21:00 00:25 - 22:45 - - - - - 22:45 19:01
Minimum _ -9,7 C 90 % 1001 hPa - 11,3 km/h (2 Bft) - - - - - -10,9 C -25,9 C
_ Max-Zeit 00:10 06:09 22:30 00:10 19:01 - - 00:10 12:45 00:10 00:10 11:39
Maximum _ -6,7 C 98 % 1004 hPa 0,0 l/m 30,7 km/h
N-NO (5 Bft)
- - 0 min 17,5 klux 0,00 min -7,2 C -13,4 C
Durchschnitt _ -7,7 C 95 % 1002 hPa #0,0 l/m 17,2 km/h (3 Bft) N-NO - #0 min. 3,93 klux #0 min. -8,4 C -17,8 C